This demonstration page uses our WeatherBlox Daily Observations layout. Learn more.

Left ArrowRight Arrow

41.12389, -100.76542

Hourly Observations for November 25, 2015

Temp ( °F °C ) Dew Point ( °F °C ) Humidity (%) Winds ( mph kmh ) Pressure ( in mb ) Visibility ( mi km ) Precip ( " mm )
12:53 am 00:53 Clear 23 -5 20 -6.7 88 88 NNW 3 6 29.80 1009 10 16 0.00 0.00
1:53 am 01:53 Clear 24 -4.4 21 -6.1 88 88 Calm 29.79 1009 10 16 0.00 0.00
2:53 am 02:53 Clear 22 -5.6 18 -7.8 85 85 N 5 7 29.80 1009 10 16 0.00 0.00
3:53 am 03:53 Clear 22 -5.6 20 -6.7 92 92 Calm 29.79 1009 10 16 0.00 0.00
4:53 am 04:53 Clear 21 -6.1 18 -7.8 88 88 Calm 29.81 1010 10 16 0.00 0.00
5:53 am 05:53 Clear 21 -6.1 18 -7.8 88 88 N 3 6 29.84 1011 10 16 0.00 0.00
6:53 am 06:53 Clear 22 -5.6 20 -6.7 92 92 WSW 6 9 29.86 1011 10 16 0.00 0.00
7:53 am 07:53 Sunny 28 -2.2 24 -4.4 85 85 Calm 29.90 1012 10 16 0.00 0.00
8:53 am 08:53 Sunny 34 1.1 29 -1.7 82 82 NNE 17 28 29.91 1013 10 16 0.00 0.00
9:53 am 09:53 Sunny 36 2.2 29 -1.7 76 76 NE 17 28 29.94 1014 10 16 0.00 0.00
10:53 am 10:53 Sunny 40 4.4 29 -1.7 65 65 NNE 17 28 29.96 1015 10 16 0.00 0.00
11:53 am 11:53 Sunny 41 5 28 -2.2 60 60 NNE 14 22 29.96 1015 10 16 0.00 0.00
12:53 pm 12:53 Sunny 44 6.7 28 -2.2 53 53 NNE 18 30 29.95 1014 10 16 0.00 0.00
1:53 pm 13:53 Sunny 43 6.1 27 -2.8 53 53 N 17 28 29.97 1015 10 16 0.00 0.00
2:53 pm 14:53 Sunny 39 4 27 -3 61 61 N 16 26 30.00 1016 10 16 0.00 0.00
3:53 pm 15:53 Mostly Cloudy 38 3.3 26 -3.3 62 62 N 20 31 30.03 1017 10 16 0.00 0.00
4:53 pm 16:53 Cloudy 35 1.7 26 -3.3 70 70 NNE 14 22 30.09 1019 10 16 0.00 0.00
5:53 pm 17:53 Cloudy 34 1.1 26 -3.3 73 73 NNE 16 26 30.11 1020 10 16 0.00 0.00
6:53 pm 18:53 Cloudy 34 1.1 26 -3.3 73 73 NNE 18 30 30.12 1020 10 16 0.00 0.00
7:53 pm 19:53 Cloudy 33 0.6 27 -2.8 78 78 NNE 20 31 30.13 1020 10 16 0.00 0.00
8:53 pm 20:53 Cloudy with Light Wintry Mix 32 0 28 -2.2 85 85 NNE 14 22 30.13 1020 8 13 0.00 0.03
9:30 pm 21:30 Cloudy with Light Wintry Mix 31 -0.6 28 -2.2 89 89 NNE 18 30 30.18 1022 10 16 0.00 0.03
9:48 pm 21:48 Cloudy 30 -1 28 -2 93 93 NNE 17 28 30.21 1023 10 16 0.00 0.00
9:49 pm 21:49 Cloudy 30 -1 28 -2 93 93 NNE 16 26 30.21 1023 10 16 0.00 0.00
9:53 pm 21:53 Cloudy 31 -0.6 28 -2.2 89 89 NNE 15 24 30.14 1021 10 16 0.00 0.03
10:53 pm 22:53 Cloudy 31 -0.6 28 -2.2 89 89 NNE 14 22 30.17 1022 10 16 0.00 0.00
11:15 pm 23:15 Cloudy with Light Freezing Rain 31 -0.6 28 -2.2 89 89 NNE 10 17 30.24 1024 7 11 0.00 0.03
11:25 pm 23:25 Cloudy with Light Freezing Rain 31 -0.6 28 -2.2 89 89 NNE 12 19 30.24 1024 6 10 0.00 0.03
11:35 pm 23:35 Cloudy with Light Freezing Rain 30 -1 28 -2 93 93 NNE 14 22 30.24 1024 6 10 0.00 0.00
11:42 pm 23:42 Cloudy with Light Freezing Rain 30 -1 28 -2 93 93 NNE 14 22 30.24 1024 8 13 0.00 0.00
11:49 pm 23:49 Cloudy with Light Freezing Rain 30 -1 28 -2 93 93 NNE 13 20 30.24 1024 8 13 0.00 0.03
11:53 pm 23:53 Cloudy with Light Freezing Rain 31 -0.6 28 -2.2 89 89 NNE 16 26 30.17 1022 8 13 0.00 0.03

Powered by AerisWeather